| time (UTC) | temp F | wind direction | speed MPH | gust MPH | rain 1hr in | rain 24hr in | rain mn in | humidity % | barometer mb |
| 20260504081537 | 60 | 91 | 0.0 | 0.0 | 0.00 | 0.00 | 0.00 | 72 | 1008.6 |
| 20260504044556 | 63 | 243 | 2.0 | 7.0 | 0.00 | 0.00 | 0.00 | 60 | 1008.1 |
| 20260504043059 | 62 | 206 | 1.0 | 4.0 | 0.00 | 0.00 | 0.00 | 61 | 1008.3 |
| 20260504041554 | 63 | 226 | 0.0 | 3.0 | 0.00 | 0.00 | 0.00 | 59 | 1009.0 |
| 20260504040054 | 63 | 214 | 0.0 | 3.0 | 0.00 | 0.00 | 0.00 | 58 | 1009.2 |
| 20260504034554 | 63 | 250 | 0.0 | 4.0 | 0.00 | 0.00 | 0.00 | 57 | 1009.3 |
| 20260504033056 | 64 | 267 | 0.0 | 4.0 | 0.00 | 0.00 | 0.00 | 56 | 1009.5 |
| 20260504031553 | 65 | 276 | 1.0 | 7.0 | 0.00 | 0.00 | 0.00 | 54 | 1009.5 |
| 20260504030052 | 65 | 293 | 0.0 | 5.0 | 0.00 | 0.00 | 0.00 | 53 | 1009.4 |
| 20260504024553 | 66 | 289 | 0.0 | 4.0 | 0.00 | 0.00 | 0.00 | 51 | 1009.4 |
| 20260504023051 | 66 | 174 | 0.0 | 7.0 | 0.00 | 0.00 | 0.00 | 50 | 1009.4 |
| 20260504021552 | 67 | 225 | 1.0 | 7.0 | 0.00 | 0.00 | 0.00 | 49 | 1009.2 |
| 20260504020127 | 67 | 213 | 0.0 | 4.0 | 0.00 | 0.00 | 0.00 | 49 | 1009.0 |
| 20260504014600 | 68 | 272 | 0.0 | 5.0 | 0.00 | 0.00 | 0.00 | 48 | 1009.0 |
| 20260504013059 | 68 | 213 | 0.0 | 5.0 | 0.00 | 0.00 | 0.00 | 47 | 1008.9 |
| 20260504011549 | 69 | 214 | 0.0 | 4.0 | 0.00 | 0.00 | 0.00 | 46 | 1008.8 |
| 20260504010048 | 70 | 217 | 1.0 | 5.0 | 0.00 | 0.00 | 0.00 | 45 | 1008.7 |
| 20260504004617 | 71 | 221 | 0.0 | 4.0 | 0.00 | 0.00 | 0.00 | 43 | 1008.8 |
| 20260504003052 | 72 | 215 | 0.0 | 4.0 | 0.00 | 0.00 | 0.00 | 41 | 1008.8 |
| 20260504001616 | 73 | 149 | 0.0 | 4.0 | 0.00 | 0.00 | 0.00 | 40 | 1008.8 |
| 20260504000046 | 74 | 214 | 0.0 | 4.0 | 0.00 | 0.00 | 0.00 | 38 | 1008.8 |
| 20260503234543 | 74 | 178 | 0.0 | 3.0 | 0.00 | 0.00 | 0.00 | 38 | 1009.1 |
| 20260503233043 | 75 | 266 | 1.0 | 9.0 | 0.00 | 0.00 | 0.00 | 37 | 1009.2 |
| 20260503231541 | 76 | 189 | 1.0 | 11.0 | 0.00 | 0.00 | 0.00 | 35 | 1009.2 |
| 20260503230056 | 76 | 207 | 2.0 | 12.0 | 0.00 | 0.00 | 0.00 | 35 | 1009.3 |
| 20260503224537 | 76 | 224 | 2.0 | 9.0 | 0.00 | 0.00 | 0.00 | 35 | 1009.5 |
| 20260503223036 | 76 | 347 | 4.0 | 15.0 | 0.00 | 0.00 | 0.00 | 35 | 1009.7 |
| 20260503221535 | 76 | 250 | 3.0 | 13.0 | 0.00 | 0.00 | 0.00 | 34 | 1009.7 |
| 20260503220042 | 76 | 271 | 5.0 | 11.0 | 0.00 | 0.00 | 0.00 | 35 | 1009.9 |
| 20260503214532 | 75 | 280 | 6.0 | 13.0 | 0.00 | 0.00 | 0.00 | 34 | 1010.0 |
| 20260503213029 | 75 | 174 | 2.0 | 14.0 | 0.00 | 0.00 | 0.00 | 36 | 1010.1 |
| 20260503211525 | 75 | 273 | 2.0 | 11.0 | 0.00 | 0.00 | 0.00 | 36 | 1010.3 |
| 20260503210023 | 74 | 212 | 3.0 | 14.0 | 0.00 | 0.00 | 0.00 | 36 | 1010.5 |
| 20260503204520 | 73 | 119 | 3.0 | 10.0 | 0.00 | 0.00 | 0.00 | 36 | 1010.9 |
| 20260503203035 | 73 | 164 | 4.0 | 13.0 | 0.00 | 0.00 | 0.00 | 37 | 1011.3 |
| 20260503201513 | 72 | 173 | 4.0 | 11.0 | 0.00 | 0.00 | 0.00 | 37 | 1011.6 |
| 20260503200012 | 72 | 182 | 3.0 | 13.0 | 0.00 | 0.00 | 0.00 | 38 | 1011.9 |
| 20260503194510 | 72 | 219 | 2.0 | 11.0 | 0.00 | 0.00 | 0.00 | 36 | 1012.4 |
| 20260503193003 | 71 | 305 | 5.0 | 12.0 | 0.00 | 0.00 | 0.00 | 38 | 1012.8 |
| 20260503191600 | 71 | 165 | 5.0 | 11.0 | 0.00 | 0.00 | 0.00 | 36 | 1013.1 |
| 20260503190110 | 70 | 290 | 4.0 | 17.0 | 0.00 | 0.00 | 0.00 | 38 | 1013.6 |
| 20260503184552 | 69 | 154 | 3.0 | 11.0 | 0.00 | 0.00 | 0.00 | 39 | 1014.0 |
| 20260503183049 | 68 | 159 | 5.0 | 15.0 | 0.00 | 0.00 | 0.00 | 39 | 1014.5 |
| 20260503181554 | 68 | 255 | 4.0 | 17.0 | 0.00 | 0.00 | 0.00 | 41 | 1014.9 |
| 20260503180046 | 67 | 225 | 7.0 | 16.0 | 0.00 | 0.00 | 0.00 | 41 | 1015.2 |
| 20260503174539 | 67 | 269 | 3.0 | 10.0 | 0.00 | 0.00 | 0.00 | 45 | 1015.6 |
| 20260503173036 | 66 | 207 | 5.0 | 11.0 | 0.00 | 0.00 | 0.00 | 42 | 1016.0 |
| 20260503171533 | 66 | 198 | 2.0 | 12.0 | 0.00 | 0.00 | 0.00 | 46 | 1016.3 |